This is the latest recevied weather packets stored in our database for station/object SP6PWT-13. If no packets are shown the sender has not sent any weather packets the latest 10 day(s).
| Time | Temp. | Humidity | Pressure | Rain* | Wind** | Luminosity | Snow |
|---|---|---|---|---|---|---|---|
| 1777719933 | 22.78° C | 29% | 1007.1 hPa | 0 mm | - | 663 W/m² | - |
| 1777719633 | 22.78° C | 29% | 1007.1 hPa | 0 mm | - | 664 W/m² | - |
| 1777719333 | 22.78° C | 30% | 1007.2 hPa | 0 mm | - | 664 W/m² | - |
| 1777719032 | 22.22° C | 30% | 1007.4 hPa | 0 mm | - | 664 W/m² | - |
| 1777718732 | 22.22° C | 30% | 1007.3 hPa | 0 mm | - | 664 W/m² | - |
| 1777718423 | 22.78° C | 30% | 1007.4 hPa | 0 mm | - | 664 W/m² | - |
| 1777718121 | 22.78° C | 30% | 1007.6 hPa | 0 mm | - | 662 W/m² | - |
| 1777717810 | 22.78° C | 30% | 1007.7 hPa | 0 mm | - | 659 W/m² | - |
| 1777717510 | 22.78° C | 31% | 1007.6 hPa | 0 mm | - | 657 W/m² | - |
| 1777717210 | 22.78° C | 30% | 1007.6 hPa | 0 mm | - | 656 W/m² | - |
| 1777716910 | 22.22° C | 31% | 1007.7 hPa | 0 mm | - | 656 W/m² | - |
| 1777716610 | 22.22° C | 31% | 1007.8 hPa | 0 mm | - | 651 W/m² | - |
| 1777716309 | 22.78° C | 31% | 1007.9 hPa | 0 mm | - | 650 W/m² | - |
| 1777716009 | 22.78° C | 31% | 1007.9 hPa | 0 mm | - | 647 W/m² | - |
| 1777715709 | 21.67° C | 32% | 1007.8 hPa | 0 mm | - | 644 W/m² | - |
| 1777715409 | 21.67° C | 32% | 1008 hPa | 0 mm | - | 643 W/m² | - |
| 1777715108 | 21.11° C | 33% | 1008 hPa | 0 mm | - | 638 W/m² | - |
| 1777714808 | 21.67° C | 32% | 1008.2 hPa | 0 mm | - | 636 W/m² | - |
| 1777714508 | 21.67° C | 33% | 1008.2 hPa | 0 mm | - | 630 W/m² | - |
| 1777714208 | 21.67° C | 32% | 1008.1 hPa | 0 mm | - | 627 W/m² | - |
| 1777713907 | 22.78° C | 32% | 1008.2 hPa | 0 mm | - | 622 W/m² | - |
| 1777713607 | 22.22° C | 33% | 1008.2 hPa | 0 mm | - | 617 W/m² | - |
| 1777713306 | 21.67° C | 34% | 1008.2 hPa | 0 mm | - | 613 W/m² | - |
| 1777713005 | 21.11° C | 35% | 1008.4 hPa | 0 mm | - | 611 W/m² | - |
| 1777712705 | 21.67° C | 34% | 1008.3 hPa | 0 mm | - | 603 W/m² | - |
* Rain latest hour (hover to see other rain measurements)
** Current wind speed in m/s (hover to see current wind gust speed)